Theta_e
281 279 278 277 277 276 276 276 276 276 276 277 278 279 280 282 283 285 286 288 291 293 294 295 296 296 296 296 296 295 294 294 297 299 301 302 302 306 315 317 315 317 317 316 317 316 315 316 315 316 315 315 314 314 313 312 312 310 310 313 315 315 315 316 315 314 314 314 315 315 315 315 315 315 315 315 315 314 313 313 312 312 311 311 311
280 279 278 277 277 276 275 275 275 275 276 277 277 278 280 281 282 283 284 287 290 292 293 294 295 296 296 297 296 296 295 294 296 298 300 302 301 303 311 316 315 316 316 315 316 316 315 315 315 315 315 315 314 314 313 313 312 311 310 312 315 315 315 315 314 314 314 314 314 315 315 315 315 315 315 315 314 313 313 312 312 312 311 311 311
280 279 278 277 276 275 275 275 275 275 275 276 277 277 279 280 281 282 284 286 289 291 293 293 294 295 296 297 297 296 296 295 295 297 300 301 302 302 307 314 315 315 316 315 315 316 315 314 314 314 314 314 314 314 313 313 312 311 310 312 314 315 315 314 314 314 314 314 314 314 314 314 314 314 314 314 314 313 312 312 312 312 312 311 310
279 278 277 276 276 275 275 274 274 274 275 275 276 277 278 278 279 281 283 285 287 289 292 293 293 293 295 296 297 296 296 295 295 297 299 301 302 302 305 312 316 315 316 316 315 316 315 314 314 313 313 313 313 313 313 312 312 311 311 313 314 315 314 314 314 314 314 314 313 313 314 314 314 314 314 313 313 313 312 312 312 312 312 311 307
278 277 277 276 275 275 274 274 274 274 274 275 275 276 277 278 278 279 281 284 286 287 290 292 292 293 293 295 296 296 296 296 295 296 299 301 302 303 304 309 316 316 315 316 315 315 315 314 314 313 313 313 313 312 312 312 312 311 311 313 314 314 314 314 314 314 313 314 314 313 312 312 313 313 313 313 313 312 311 311 312 312 311 307 301
278 277 276 276 275 275 274 274 274 274 274 274 275 275 276 277 277 278 279 282 284 286 288 290 292 292 293 293 295 295 295 296 295 295 297 300 302 303 303 307 314 316 315 315 315 315 315 314 314 313 313 313 313 313 312 312 311 311 311 311 312 313 314 314 314 313 312 312 313 312 312 311 312 313 312 312 313 312 311 310 309 309 308 303 298
278 277 276 275 275 274 274 274 273 273 273 274 274 274 275 275 276 277 278 279 282 284 286 288 290 291 292 293 293 294 294 295 295 294 296 299 301 303 303 305 312 317 316 315 315 315 315 315 314 314 313 313 313 313 313 312 311 311 310 310 310 311 312 313 312 312 311 311 312 312 312 311 312 312 312 311 312 311 312 311 307 304 302 299 297
277 276 275 274 274 274 273 273 273 273 273 273 273 274 274 274 275 275 277 278 279 281 283 286 288 290 291 292 292 292 293 294 295 294 295 298 300 302 303 304 309 316 316 315 315 315 315 315 314 314 314 314 314 314 314 313 311 311 310 310 310 310 311 311 310 310 311 311 311 311 311 310 310 310 310 309 307 306 308 311 311 308 302 298 298
277 276 275 274 273 273 273 273 273 273 273 273 273 273 273 274 274 274 276 277 277 278 280 282 285 287 289 291 290 291 292 293 294 294 294 297 299 302 303 304 307 314 317 315 315 315 315 315 314 314 314 314 314 314 314 312 311 311 310 310 310 309 309 309 310 310 310 310 309 309 309 308 308 308 308 308 307 307 308 309 311 310 304 299 298
276 275 274 273 273 273 273 273 272 272 272 272 273 273 273 273 273 274 274 275 276 277 278 280 282 285 287 289 289 291 292 293 294 294 293 295 298 301 303 304 306 312 316 315 314 315 315 314 314 314 314 314 313 313 313 311 311 311 310 310 310 309 309 309 309 309 309 309 308 308 307 307 307 308 308 309 310 310 309 308 307 305 302 299 299
275 274 273 273 272 272 272 272 272 271 272 272 272 272 272 272 272 273 274 275 276 277 277 278 280 282 285 287 288 289 292 293 293 294 294 294 296 299 302 304 304 309 315 316 314 314 314 314 314 314 314 314 313 313 312 311 311 311 311 311 310 309 309 309 309 309 308 308 307 307 307 307 307 307 306 307 309 309 308 308 307 304 300 299 300
274 274 273 272 272 271 271 271 271 271 271 271 271 271 271 272 272 272 273 274 275 276 277 278 279 281 283 284 286 288 291 292 293 294 293 293 295 297 301 303 304 307 313 316 314 314 314 314 314 314 313 314 313 313 312 312 311 311 311 311 311 310 310 310 309 309 309 308 307 306 305 305 305 305 305 304 306 307 307 306 306 304 301 300 299
273 273 273 271 271 271 271 270 270 270 270 270 270 270 271 271 272 272 272 273 275 276 277 278 278 279 281 283 285 287 290 291 292 293 293 293 294 296 299 302 303 305 310 315 314 314 315 314 313 313 313 313 313 313 312 312 311 311 311 312 312 311 311 311 311 312 312 311 309 307 305 304 304 303 303 303 304 306 306 305 304 304 302 300 299
273 273 272 271 271 271 270 270 269 269 269 270 270 270 270 270 271 271 271 272 274 276 277 279 279 279 280 281 284 286 288 291 292 293 293 293 294 295 298 301 303 304 308 314 315 314 314 314 313 313 313 313 312 312 312 312 311 311 311 311 312 311 311 311 312 312 313 312 310 309 307 305 303 302 302 302 303 305 307 307 307 305 302 299 299
274 273 271 270 270 270 269 269 268 269 269 269 269 269 270 270 270 271 271 272 273 275 277 279 279 279 279 280 283 285 287 290 292 293 293 293 293 294 297 299 302 303 307 312 315 314 314 314 314 313 313 313 313 312 312 312 311 311 311 311 311 311 311 311 311 311 311 311 310 309 308 305 303 303 303 302 303 305 306 307 306 303 300 299 299
273 272 272 271 270 269 269 268 268 268 269 269 269 270 270 270 270 271 272 272 273 275 277 278 280 280 279 280 282 285 287 290 292 292 293 293 293 294 295 298 301 303 305 310 314 314 314 315 314 314 313 313 313 313 312 313 312 312 312 312 311 311 311 311 310 310 310 310 309 309 308 306 304 303 303 303 303 303 303 303 301 298 298 299 299
271 271 271 271 270 269 269 268 268 268 268 269 270 271 272 272 271 272 272 273 274 275 276 278 279 279 279 280 282 285 287 290 291 292 293 293 293 293 295 297 300 303 305 309 313 314 314 314 314 314 314 313 314 313 313 313 313 313 313 312 311 310 310 309 308 308 308 308 309 308 307 306 304 303 303 303 302 302 301 300 298 297 298 299 299
271 270 271 271 272 271 270 268 268 269 270 270 271 271 272 273 273 273 273 273 275 276 276 277 278 279 280 282 283 286 288 289 291 292 292 292 293 293 294 296 300 303 305 308 312 313 314 314 314 314 314 314 314 313 313 313 313 313 313 312 311 310 309 308 307 306 306 306 307 307 306 306 305 305 304 303 302 301 301 299 299 298 298 298 299
272 272 274 274 273 272 270 269 269 270 271 272 273 273 273 273 274 274 274 275 275 276 277 278 279 280 282 283 285 287 288 289 290 291 291 292 293 293 294 296 299 302 304 307 311 313 313 314 314 314 314 314 314 313 312 313 313 313 312 311 310 309 309 308 307 306 305 305 305 305 305 305 305 305 304 303 301 301 300 300 299 299 300 299 300
274 275 275 274 273 273 271 270 270 271 272 273 274 275 275 275 275 275 276 277 277 277 278 279 280 282 284 285 286 288 289 290 291 291 291 292 292 293 294 297 300 302 304 308 310 312 313 313 314 314 315 314 314 313 313 313 314 313 312 311 310 310 310 309 308 307 306 305 305 305 304 304 304 304 304 302 301 300 300 299 299 300 301 301 300
275 276 275 275 276 275 273 272 272 273 274 275 275 276 277 277 278 278 278 279 279 280 281 281 282 284 286 287 288 289 291 292 292 292 293 293 293 294 296 298 301 302 305 308 310 311 312 313 313 314 314 314 314 314 313 313 314 313 313 313 312 312 311 310 309 308 307 306 305 304 304 304 304 303 303 302 301 301 300 299 299 300 301 302 302
275 276 276 277 277 276 274 272 273 274 276 276 276 278 280 280 280 281 281 281 282 282 282 283 283 285 288 290 290 291 292 292 292 293 294 294 295 296 298 300 302 303 305 308 310 311 312 313 313 313 314 314 314 314 313 313 314 314 315 315 314 313 313 312 310 308 307 306 305 304 304 303 303 303 302 302 302 301 300 299 299 300 301 302 304
275 276 276 276 277 276 274 273 274 275 276 275 276 279 281 282 282 283 283 284 284 284 284 284 285 287 288 290 291 292 292 292 293 294 295 296 297 298 300 301 302 303 306 308 310 311 312 313 313 313 313 313 313 313 313 313 314 315 316 315 314 313 313 311 309 308 307 307 306 305 305 305 304 304 303 303 303 302 300 299 299 299 301 302 302
276 276 276 276 276 276 274 273 273 273 273 274 275 278 281 282 283 284 285 285 285 285 286 286 287 288 289 290 292 292 293 294 295 296 297 298 300 300 300 301 303 304 306 308 310 311 312 313 313 313 313 313 312 313 313 313 314 315 315 314 313 313 312 310 309 308 307 306 306 306 305 305 305 305 305 305 305 304 301 299 299 299 300 301 301
276 276 277 276 276 276 275 272 271 271 272 274 276 278 280 282 283 283 285 286 287 287 287 288 289 289 290 291 293 294 295 296 297 298 299 300 301 301 301 302 304 304 306 308 310 311 312 313 313 313 313 313 312 312 312 312 313 314 313 313 312 312 312 311 309 307 306 306 306 306 304 303 303 303 304 304 305 304 301 299 299 300 300 300 300
276 277 277 277 277 276 273 271 270 272 274 276 277 278 279 280 282 283 284 286 287 288 289 289 290 291 292 293 294 295 296 297 298 299 300 301 301 302 302 303 304 305 306 308 310 311 312 312 313 313 312 312 311 311 311 312 312 312 312 312 312 312 312 310 308 306 306 307 307 305 304 303 302 302 303 303 304 303 301 299 299 300 300 300 300
276 277 277 278 277 274 270 269 270 273 275 276 277 279 279 280 281 282 284 285 286 288 289 290 290 291 292 294 295 295 296 298 299 300 301 301 302 303 304 304 305 305 306 308 309 310 311 312 312 312 312 311 311 311 311 311 311 309 309 310 311 311 311 310 308 308 309 309 308 305 303 302 301 301 302 302 303 303 301 299 299 299 300 299 299
277 277 277 277 276 271 268 269 270 271 273 274 276 278 279 280 281 281 282 283 283 285 287 289 290 291 292 293 295 295 296 298 299 300 301 302 303 304 304 304 304 305 306 308 308 309 310 311 311 311 310 310 309 309 309 309 309 308 308 309 310 310 310 309 309 308 309 309 307 304 301 301 301 302 302 301 301 301 300 299 299 299 299 299 299
277 277 276 277 276 270 268 269 269 269 270 273 276 279 278 277 278 280 281 282 281 284 289 290 290 291 292 293 294 295 296 297 298 299 300 301 302 303 303 303 304 305 307 307 308 309 309 309 310 309 309 309 308 308 308 308 308 307 307 308 308 308 308 308 308 308 308 307 305 303 302 302 302 302 301 300 300 300 300 299 299 299 299 299 299
277 276 276 277 274 269 267 269 269 268 269 271 276 281 282 279 277 278 280 282 282 284 290 292 291 291 292 293 294 295 296 297 298 299 300 301 302 302 302 302 304 305 306 307 308 308 308 309 310 310 309 308 307 306 307 307 307 307 307 307 307 307 307 308 308 307 307 306 304 303 302 302 302 302 301 300 299 299 299 299 298 298 298 299 299
275 276 276 276 272 268 267 269 268 268 269 271 274 278 282 284 282 279 280 282 283 285 288 290 290 291 291 292 294 295 296 297 298 298 300 301 301 302 302 302 304 306 306 307 308 308 308 309 310 310 309 308 307 307 307 307 307 307 306 306 306 306 307 308 307 306 306 305 304 303 302 302 302 302 301 300 299 298 299 298 298 298 298 298 298
274 275 276 275 272 269 268 268 267 267 269 272 273 274 276 280 283 283 282 282 282 284 287 289 290 290 291 292 294 295 296 297 297 298 299 300 301 301 302 303 304 306 306 307 308 309 310 310 310 310 310 309 308 308 308 307 307 307 307 306 306 306 307 308 307 306 305 304 304 303 302 301 301 301 300 299 298 298 298 298 298 298 297 298 298
274 275 275 274 272 270 269 269 267 266 267 269 271 272 272 272 274 278 282 284 283 285 287 288 289 290 291 293 294 294 295 296 297 298 299 300 300 301 302 303 304 305 305 305 307 309 310 310 311 311 310 310 309 308 308 308 308 309 308 308 308 308 308 307 306 304 304 304 304 305 305 303 302 301 300 299 298 298 298 298 298 297 296 296 297
274 274 274 273 272 270 269 269 268 266 267 269 269 269 269 269 269 271 275 279 281 283 285 287 288 290 291 293 293 294 295 296 297 298 299 299 300 301 301 302 303 304 304 304 305 307 308 309 310 310 310 310 310 309 308 308 309 309 309 308 309 309 308 306 304 304 304 304 304 305 306 306 305 304 302 300 299 299 298 298 297 297 296 296 296
274 274 274 274 272 271 270 270 269 267 268 269 268 267 267 268 269 269 270 271 273 276 279 282 284 286 288 291 292 292 293 294 296 298 298 299 300 300 300 301 302 303 304 304 304 305 306 308 309 310 310 310 310 309 309 309 309 310 309 308 308 307 307 306 306 306 304 303 303 304 305 305 306 306 305 303 301 299 298 298 297 297 297 297 297
273 274 274 274 273 272 272 271 270 268 268 269 268 267 266 267 268 269 269 269 269 272 276 279 281 284 287 289 290 290 290 292 294 296 297 298 299 299 299 300 300 301 302 303 304 304 305 307 308 309 309 309 309 309 309 309 309 309 309 308 308 307 306 306 307 306 305 303 303 303 303 303 303 303 302 302 302 302 301 300 299 299 298 298 298
272 272 273 273 273 273 273 272 271 270 270 270 270 270 268 267 268 269 270 269 268 270 273 276 280 283 285 286 287 287 288 290 293 295 295 296 297 297 297 297 298 298 299 300 301 302 303 304 305 306 307 308 308 308 309 309 309 309 308 308 308 307 307 306 306 306 306 305 304 302 302 302 302 300 299 299 301 301 301 301 300 300 300 299 298
271 271 271 272 272 272 273 273 273 272 272 271 271 271 270 269 268 269 269 268 268 268 269 270 272 275 277 280 283 285 288 290 292 293 292 293 294 294 294 294 295 296 296 297 298 299 300 301 301 302 304 305 307 308 308 308 307 307 307 307 307 307 306 306 306 305 306 306 305 304 303 302 301 300 299 299 300 300 300 300 299 299 299 298 297
270 270 270 271 271 272 272 272 272 272 272 272 271 271 271 270 269 269 268 268 268 268 268 267 267 267 269 273 278 283 287 287 287 286 286 287 288 289 290 291 292 293 294 295 296 297 298 299 299 300 301 302 303 304 306 306 307 306 306 306 306 305 305 305 305 305 305 305 305 305 304 303 302 301 300 300 300 300 300 299 299 299 299 298 297
269 269 269 269 269 270 271 272 272 271 271 271 271 271 270 270 270 270 269 268 268 268 268 267 266 265 265 268 272 277 281 280 279 281 283 283 284 285 287 288 289 290 291 292 294 295 296 297 297 298 299 299 300 300 301 302 304 305 305 305 305 305 304 304 304 304 304 304 304 304 304 304 303 301 300 300 300 300 300 299 299 299 299 299 299
268 268 268 268 268 269 269 270 270 270 270 270 271 270 270 270 270 270 270 269 269 268 269 268 267 266 266 267 269 273 276 276 276 277 279 279 280 282 283 284 285 286 287 288 290 291 293 294 295 296 297 298 298 298 298 299 300 301 302 303 303 303 303 303 303 303 303 303 303 302 302 302 301 300 300 300 300 299 299 298 298 298 297 297 297
268 268 267 267 268 268 268 268 268 268 268 269 269 269 269 269 270 270 270 270 270 269 269 269 269 269 269 269 270 273 274 274 274 275 276 276 277 279 279 281 282 283 284 285 286 287 289 291 292 293 294 295 296 297 297 297 297 298 298 299 300 300 301 301 301 302 302 302 302 301 301 300 300 300 299 299 299 298 298 297 297 297 296 295 295
267 267 267 267 267 267 267 267 267 267 267 267 267 268 268 269 269 269 269 270 270 270 270 270 270 270 270 271 272 273 274 273 273 273 273 274 275 276 277 279 280 280 282 283 284 284 286 288 289 290 291 292 293 293 294 295 295 296 296 297 297 298 298 299 299 300 300 300 300 301 300 300 299 299 299 298 298 298 297 297 297 297 296 296 295
268 267 267 267 267 267 267 267 267 267 266 266 266 267 267 267 268 268 269 269 269 269 269 269 270 271 271 272 272 272 272 272 272 272 272 273 273 275 276 278 278 279 280 281 281 282 284 285 286 286 287 288 289 290 291 292 293 294 294 294 295 295 296 296 297 297 297 298 299 299 299 299 299 298 298 298 297 297 297 296 296 296 296 295 295
267 268 268 267 267 267 267 267 267 266 266 266 266 266 266 266 267 267 267 267 268 268 268 268 269 270 271 271 271 271 271 271 271 271 272 272 273 273 274 276 277 278 279 279 280 281 282 282 283 284 285 285 286 287 288 289 290 291 292 292 293 293 294 294 294 295 295 296 296 297 297 297 297 297 297 297 297 296 296 296 296 295 295 294 294
267 267 267 267 267 267 267 267 267 266 266 266 266 266 266 266 266 266 266 266 266 267 267 267 268 269 269 270 270 270 270 271 271 271 271 272 272 272 273 274 275 276 276 277 278 279 280 281 281 282 282 283 283 284 285 286 287 288 289 290 290 291 291 292 293 293 294 294 294 295 295 295 295 296 296 295 295 295 295 295 295 294 294 293 293
267 267 267 267 267 267 267 267 267 267 267 266 266 266 266 266 266 266 266 266 266 266 266 266 267 267 268 268 268 268 269 270 270 270 270 271 272 272 273 273 274 274 274 275 276 277 278 278 279 279 280 280 281 282 283 284 285 286 286 287 288 288 289 289 290 291 291 292 292 292 293 293 293 294 294 293 293 293 293 293 293 293 292 292 292
266 267 267 267 267 267 267 267 267 267 267 267 267 266 266 266 266 266 266 266 266 266 266 266 266 266 267 267 267 267 268 268 268 269 269 270 271 271 272 273 273 273 274 274 275 275 276 276 277 278 278 279 279 280 280 281 282 283 284 285 285 286 286 287 288 288 289 289 290 290 290 291 291 291 291 291 291 291 291 291 291 291 290 290 290
266 266 266 266 266 266 266 266 266 267 267 267 267 267 267 267 266 266 266 266 266 266 266 266 266 266 266 266 267 267 267 267 268 268 269 269 269 270 270 271 272 273 273 273 273 274 274 275 276 276 277 277 278 278 278 279 279 280 281 281 282 283 284 285 286 286 287 287 288 288 288 288 288 289 289 289 289 289 289 289 289 289 288 288 288
266 266 266 266 266 266 266 266 266 266 266 266 266 267 267 267 267 267 266 266 266 266 266 266 266 266 266 266 267 267 267 267 267 267 268 268 268 269 269 270 270 271 271 272 272 273 273 274 275 276 276 276 276 276 276 276 277 277 278 278 279 280 282 283 283 284 284 285 285 286 286 286 286 286 286 286 286 286 286 286 286 286 286 286 286
266 266 266 266 266 266 266 266 266 266 266 266 266 266 266 266 267 267 267 267 266 266 266 266 266 266 266 266 267 267 267 267 267 267 267 267 268 268 268 269 269 269 270 270 271 271 272 272 274 275 275 275 275 275 276 275 275 275 276 277 277 278 279 280 281 281 282 282 283 283 284 284 284 284 284 284 284 284 284 284 284 284 284 284 284
Wind_Speed
57 55 51 50 50 48 45 44 44 43 41 40 40 38 35 35 35 36 39 40 36 28 26 29 33 36 36 33 32 32 32 32 30 31 33 37 40 38 47 58 57 60 63 63 66 66 65 66 63 63 64 61 60 59 58 57 56 56 56 55 57 60 60 59 57 53 50 51 55 54 51 52 51 48 48 47 45 44 43 41 39 38 37 36 35
58 56 52 49 49 48 46 45 45 43 41 40 41 39 35 33 34 35 38 40 39 32 26 25 29 33 35 33 30 31 33 33 30 29 31 34 37 38 39 53 54 56 60 60 63 66 66 66 64 62 63 62 60 59 59 60 58 57 58 56 56 59 60 57 56 55 53 51 52 52 51 50 50 50 48 48 47 46 45 42 39 36 34 34 34
58 56 54 51 48 47 46 46 45 43 43 41 40 39 37 35 34 33 36 40 40 37 30 26 25 28 32 33 31 33 34 33 31 29 30 32 35 37 37 47 56 57 59 60 62 65 66 66 66 64 63 62 61 60 59 59 59 57 58 58 57 58 59 57 55 56 57 55 51 51 52 50 51 51 49 48 47 47 46 42 38 35 33 32 32
58 55 53 52 49 47 46 45 45 44 43 42 39 38 38 38 36 33 32 35 39 40 35 29 26 26 30 33 34 34 36 35 32 30 30 31 34 36 36 42 58 61 61 63 64 65 66 66 66 66 65 64 62 61 60 58 58 58 57 57 56 58 59 57 55 54 55 56 53 51 52 52 51 51 50 48 46 45 44 40 37 35 33 32 32
57 55 53 52 50 48 46 43 43 44 43 41 39 38 37 38 38 36 33 33 36 39 38 35 32 28 27 31 33 33 35 35 34 31 29 31 34 36 36 37 53 62 62 65 66 66 67 67 66 67 66 66 65 63 62 59 59 60 59 55 53 55 57 57 54 51 49 50 51 50 50 50 50 50 49 48 47 44 42 39 37 35 34 33 33
57 55 54 53 50 47 44 40 39 41 41 41 39 38 37 37 37 38 37 35 34 37 39 39 39 34 28 28 31 33 34 35 35 33 30 31 34 37 37 37 47 57 57 62 67 67 68 68 66 67 68 67 68 66 64 62 60 61 60 57 54 53 55 56 54 51 48 46 47 49 49 49 50 49 48 48 49 48 43 39 37 36 35 35 35
58 57 55 51 46 43 42 41 39 38 38 39 39 38 38 38 38 38 38 37 36 36 38 40 42 40 32 28 29 31 33 35 35 34 31 30 34 37 37 36 43 56 57 60 66 67 68 69 67 68 69 69 70 69 67 64 61 61 60 58 56 54 55 56 53 51 50 48 47 49 49 49 49 49 48 47 48 49 48 45 41 38 37 37 37
59 60 55 47 42 40 40 39 38 38 38 38 39 39 39 39 39 38 37 38 38 37 37 38 42 43 39 32 29 30 32 34 34 33 31 30 32 36 36 34 39 55 60 60 66 68 67 69 69 69 70 70 70 71 69 66 62 61 60 59 57 57 56 56 53 51 50 49 48 48 47 47 47 47 48 48 48 49 49 47 45 42 40 39 39
60 61 55 45 42 42 41 39 38 39 40 39 38 38 38 38 38 38 37 38 39 39 38 37 38 42 42 39 34 30 32 34 33 31 30 29 30 33 37 35 36 51 62 59 64 68 67 68 69 69 71 70 70 71 69 67 65 63 62 61 59 58 57 56 55 53 51 50 49 47 47 47 48 49 49 50 50 48 47 46 46 45 44 43 41
60 60 54 48 45 45 43 41 40 40 39 39 38 37 38 39 40 40 40 39 40 40 38 37 37 39 42 44 41 36 36 37 35 31 30 28 28 31 38 36 34 45 61 59 60 66 67 68 69 69 70 70 70 70 68 67 67 65 64 62 61 60 60 57 56 55 53 52 50 49 49 49 50 51 51 50 50 49 50 49 48 47 46 45 42
60 57 54 51 49 47 44 42 42 42 41 41 42 42 41 42 42 42 40 39 38 39 39 38 37 37 41 45 45 42 43 43 40 37 34 31 29 30 36 38 33 39 57 60 57 62 66 67 69 68 69 70 69 69 69 68 67 64 62 62 61 61 60 58 57 56 54 54 53 52 52 51 51 50 49 49 51 53 54 53 52 51 50 49 47
58 58 57 52 49 47 45 45 46 46 46 45 45 45 43 43 43 42 41 39 38 38 39 39 39 38 40 44 45 45 47 47 45 43 39 34 30 29 33 40 35 35 52 62 58 60 64 64 66 67 67 70 70 69 70 70 68 64 61 61 60 60 59 58 57 56 56 55 54 54 54 53 51 50 49 50 53 56 56 56 56 54 53 52 51
59 61 58 51 48 49 49 49 49 48 48 47 45 44 43 43 43 42 43 41 38 38 39 39 39 39 39 42 44 45 48 49 47 46 43 38 32 28 30 40 39 34 45 62 61 60 64 63 63 64 66 69 71 70 70 70 69 65 62 60 59 59 59 59 59 58 58 58 57 58 56 54 52 51 51 50 52 56 59 59 58 56 53 53 52
58 59 56 50 49 51 51 50 49 47 48 48 46 45 44 44 44 43 43 41 37 36 38 40 40 40 40 40 41 44 48 49 47 46 44 39 34 30 29 37 41 36 40 58 63 61 64 65 64 64 64 67 70 70 70 70 69 66 64 61 60 60 59 59 58 58 59 59 60 60 59 57 54 51 49 50 52 56 61 62 60 58 55 53 52
60 59 55 52 52 52 51 51 50 49 48 47 46 47 46 45 45 42 41 40 37 35 36 40 41 40 40 39 39 42 47 49 48 46 44 39 35 31 29 34 41 38 38 53 63 61 63 66 65 65 64 65 69 70 69 70 69 67 65 64 62 61 60 59 59 59 59 59 60 59 59 58 54 48 46 49 53 55 59 61 60 59 57 54 53
61 58 54 52 52 52 51 51 52 51 51 49 47 47 47 45 45 42 40 39 38 34 35 37 39 40 40 39 38 41 45 48 48 47 44 40 36 34 31 33 40 40 38 49 62 62 62 65 65 65 65 66 69 70 69 70 69 67 65 64 63 61 60 59 60 60 60 58 58 57 57 56 52 47 45 47 52 56 58 58 57 57 55 53 52
59 60 59 56 54 52 51 51 53 52 51 51 50 48 46 44 43 42 40 39 37 35 35 36 38 39 39 36 34 38 42 46 48 46 44 41 37 36 34 33 38 41 38 47 61 63 62 65 65 65 66 66 68 69 68 69 69 67 66 65 63 62 61 60 59 58 58 57 56 55 53 52 50 47 45 46 49 54 58 58 57 56 55 53 52
58 59 59 57 55 53 52 53 54 52 49 48 48 47 46 44 41 39 38 37 36 34 34 36 37 37 35 32 30 33 39 44 45 45 44 41 38 37 35 34 38 41 40 46 59 63 62 64 64 65 66 66 68 69 68 69 69 68 68 67 66 65 64 62 60 58 56 54 53 52 50 48 47 47 46 46 48 51 55 56 54 54 56 56 55
60 60 59 58 57 55 52 51 51 49 47 44 43 42 42 41 39 37 34 33 33 32 31 33 34 33 32 31 28 29 35 40 41 41 41 39 37 37 36 36 38 41 41 47 58 62 62 63 64 65 66 66 67 68 69 70 71 71 70 69 68 67 66 63 62 60 57 55 53 52 50 48 47 47 47 47 48 49 50 51 52 54 55 56 56
61 61 59 58 56 52 49 47 46 44 42 41 40 40 39 36 34 32 30 28 27 27 28 29 32 32 29 28 28 29 31 32 33 34 34 34 35 36 37 38 39 40 43 50 57 60 62 64 65 65 66 65 67 68 69 71 72 72 71 71 70 68 65 63 62 61 59 57 55 53 50 49 49 48 48 48 49 49 49 50 52 53 53 54 57
60 59 59 57 54 49 45 44 42 40 37 36 36 36 36 34 30 25 24 22 22 24 25 26 29 29 27 26 27 28 28 28 28 29 31 33 35 36 38 41 42 42 45 53 59 60 61 64 65 66 66 65 66 68 69 71 73 73 72 71 70 67 64 62 61 60 58 57 55 53 51 50 50 51 50 50 50 50 50 51 51 51 51 53 54
59 59 59 57 53 48 44 41 39 38 36 35 34 31 30 31 30 24 22 22 22 24 26 27 29 29 26 24 25 26 27 28 28 29 31 33 36 38 40 43 45 44 47 55 61 61 62 64 65 65 65 65 66 67 69 70 72 72 70 69 67 64 62 61 60 59 58 57 55 54 53 52 53 53 53 53 52 51 52 53 52 51 50 51 51
58 58 58 56 52 47 44 40 38 37 37 37 35 31 25 26 28 27 24 24 24 25 26 28 30 30 26 23 23 25 27 28 29 30 32 34 37 39 41 45 46 46 50 57 61 62 63 63 63 64 64 64 65 66 67 69 71 71 69 66 65 64 61 60 59 58 56 55 54 55 55 55 57 57 56 55 54 52 52 53 53 51 50 51 51
57 56 55 54 50 46 43 42 41 40 39 38 35 30 24 21 23 25 25 25 24 25 27 28 28 27 25 22 21 23 24 25 28 30 32 34 36 37 41 46 46 46 52 58 60 61 62 61 61 62 63 64 65 65 67 68 69 70 68 66 64 63 60 59 59 58 57 55 56 57 58 60 61 61 60 59 56 53 51 51 50 49 49 50 51
56 55 53 52 49 46 45 45 43 41 39 36 33 30 25 21 21 23 26 26 26 28 29 28 26 24 23 22 21 20 21 23 26 28 29 31 33 35 41 46 46 47 53 57 59 61 61 60 59 59 61 63 64 64 65 66 67 67 66 64 63 61 60 59 59 59 59 59 61 63 64 64 64 63 62 60 56 54 52 51 51 51 51 53 53
55 54 53 52 49 47 48 48 45 42 38 33 31 29 27 23 20 20 22 24 26 28 30 30 28 27 25 23 21 20 19 21 23 24 25 28 31 34 40 44 45 48 54 57 59 60 60 59 58 58 60 62 63 62 62 63 63 63 62 61 60 60 61 61 61 61 62 61 62 64 65 65 64 62 60 59 57 56 55 56 56 56 56 57 57
54 53 52 52 49 48 49 48 46 43 40 36 32 29 26 24 22 20 20 21 23 27 29 30 30 29 27 23 21 20 18 19 19 19 21 26 29 32 37 41 44 49 54 56 57 58 58 57 57 58 59 60 61 61 60 60 60 59 59 59 59 60 63 63 62 62 62 61 62 62 62 62 62 60 60 60 60 60 59 59 60 59 58 57 56
51 51 51 50 49 48 48 47 46 45 44 40 35 30 26 24 23 23 22 23 26 30 31 30 30 29 27 23 21 19 17 17 17 16 17 22 27 30 33 37 44 52 55 56 56 57 56 56 55 55 56 56 57 57 56 55 55 56 56 57 58 60 61 61 60 60 60 60 60 60 59 61 62 62 62 62 62 62 61 61 61 60 58 57 56
49 49 49 49 48 47 46 45 45 46 45 42 36 30 26 25 25 23 19 19 25 28 27 25 25 26 26 23 20 19 18 16 15 14 14 16 21 26 32 39 48 54 56 56 57 56 54 54 53 52 53 55 55 55 55 54 54 54 54 55 57 58 59 59 60 60 60 60 59 59 59 61 63 63 63 63 62 62 62 62 61 60 58 58 58
48 47 48 47 46 46 46 45 45 45 45 42 38 30 22 19 22 22 18 16 19 19 13 13 16 20 23 23 20 17 17 16 13 12 12 12 13 19 30 42 49 53 54 55 55 53 52 53 53 53 54 55 55 55 55 55 54 54 54 55 56 57 58 59 60 61 61 60 59 58 59 61 62 62 63 63 62 62 62 62 61 60 60 61 61
46 46 46 46 45 45 44 44 45 44 42 41 40 37 28 18 16 20 21 20 18 14 6 4 8 12 16 19 18 15 14 14 12 11 10 10 9 15 30 43 47 48 51 53 52 51 51 51 51 52 53 54 55 55 55 55 55 55 55 56 57 57 57 58 59 60 60 60 58 57 58 59 60 62 62 62 61 62 62 62 60 60 62 63 64
43 43 44 44 44 44 43 43 44 45 43 40 39 40 39 31 22 19 21 24 24 18 10 3 1 3 7 11 14 14 12 10 9 9 9 9 8 12 26 41 46 45 46 48 49 49 49 49 50 51 51 52 53 54 54 54 54 54 54 55 56 56 56 55 56 58 58 59 58 57 57 57 58 59 60 60 59 60 62 62 62 63 64 64 64
40 41 42 42 43 44 44 44 45 46 45 43 42 41 43 43 38 30 23 22 24 22 16 10 7 4 1 4 7 10 11 9 6 7 8 9 10 11 18 31 40 42 41 43 46 49 49 49 49 48 48 49 50 51 53 53 52 52 52 53 53 53 54 54 54 55 57 57 58 58 58 58 58 58 58 58 59 60 62 63 64 64 64 63 64
38 38 39 40 41 43 44 44 46 47 46 45 46 45 44 45 45 42 37 31 28 27 25 20 16 12 6 2 1 3 5 6 6 7 8 8 10 11 12 19 29 35 37 38 41 45 48 49 48 46 46 46 47 48 50 51 51 51 51 50 50 50 51 52 53 53 55 56 57 58 58 58 59 59 59 59 60 60 61 63 64 64 64 65 64
37 38 39 40 40 42 42 43 45 47 46 46 48 49 48 46 45 45 47 46 43 39 37 33 30 25 17 11 8 8 7 4 5 9 11 11 10 10 11 15 24 32 35 36 37 39 41 44 45 45 45 45 45 46 47 50 51 51 49 48 48 49 50 51 51 51 53 54 56 57 58 59 60 61 61 62 62 61 62 63 63 64 65 66 64
37 38 39 40 40 40 40 41 44 45 46 47 48 50 51 51 48 46 47 48 48 45 42 39 35 31 26 21 18 18 17 13 7 7 10 12 14 15 16 19 24 30 33 33 34 36 38 41 43 44 44 45 45 46 46 48 50 51 50 49 48 48 49 50 50 50 52 54 55 56 57 58 59 60 61 61 62 63 64 65 65 66 67 67 66
36 37 38 39 39 38 39 40 42 43 44 46 48 50 52 53 52 50 49 50 50 50 48 44 38 34 31 27 24 24 24 18 12 12 14 14 15 18 20 20 22 25 27 26 26 28 31 35 38 40 42 44 44 45 46 46 48 49 49 49 48 47 47 48 48 49 51 53 54 55 55 56 58 58 58 59 62 64 65 65 66 67 67 67 66
34 35 36 36 37 37 38 39 40 42 44 46 47 49 52 53 54 54 53 53 52 52 53 53 51 48 44 37 29 22 17 14 14 17 19 19 19 19 19 18 19 20 19 18 18 19 22 26 29 31 35 40 42 43 44 45 45 46 47 48 47 47 46 47 47 48 50 51 53 54 55 56 57 57 57 59 61 63 64 65 65 65 65 64 64
32 33 33 34 35 36 37 39 40 42 44 46 47 49 50 52 54 55 56 56 55 53 53 56 57 54 50 45 38 29 22 22 26 29 28 27 27 26 23 21 20 18 16 14 14 14 15 18 22 25 28 32 36 38 40 42 43 44 44 45 45 45 46 47 48 49 50 51 52 53 54 56 57 57 58 59 60 61 62 62 63 64 64 63 64
31 32 33 34 35 35 36 38 40 42 43 44 46 48 49 51 52 53 55 56 56 55 55 56 56 54 51 50 47 41 38 40 41 38 35 34 32 30 27 25 24 21 19 16 14 13 13 13 15 18 21 24 27 31 33 36 39 41 42 43 44 44 46 47 48 48 49 49 50 51 53 55 56 57 58 60 61 61 60 60 61 62 62 63 64
30 31 33 33 34 35 36 38 40 41 42 42 44 46 47 48 49 50 51 52 54 54 54 54 54 53 51 50 48 46 46 47 46 42 41 40 37 34 33 31 28 26 23 20 18 16 14 14 13 14 16 18 21 23 25 28 30 33 37 40 41 43 44 45 46 46 47 47 48 50 51 53 55 55 56 58 59 58 57 56 56 56 57 58 59
29 30 32 33 34 35 37 38 40 40 40 41 43 44 45 45 46 48 48 49 50 51 51 51 51 51 50 50 48 47 48 49 48 46 45 42 39 37 36 34 32 30 27 25 22 19 16 15 14 13 13 15 16 18 20 22 23 26 29 32 35 37 40 41 43 44 45 45 46 48 49 50 52 53 55 55 56 55 55 55 54 52 51 52 51
27 28 30 31 33 34 35 36 38 39 40 41 42 43 43 44 44 46 46 47 47 48 48 49 49 48 48 49 49 48 49 50 49 48 46 43 41 38 35 33 33 32 30 28 27 24 20 17 16 15 13 12 12 13 15 17 19 21 24 26 29 32 34 36 38 40 42 43 44 46 47 49 50 51 52 52 52 53 53 53 53 52 51 51 50
24 26 27 28 30 32 33 34 36 37 38 39 40 41 42 42 43 44 45 45 45 46 47 47 47 46 46 48 50 49 49 49 49 48 46 45 42 39 36 34 32 31 29 29 28 26 23 21 19 17 16 14 12 11 11 12 14 16 19 21 24 27 29 31 33 35 37 39 41 43 45 46 47 48 49 49 50 50 50 50 51 51 50 49 49
23 24 25 26 28 29 31 32 34 35 36 37 38 40 41 41 41 43 44 44 44 44 45 45 45 45 45 47 48 47 46 46 46 46 45 44 44 42 39 36 34 32 31 29 27 25 25 23 21 19 18 16 14 12 10 9 9 11 13 14 17 20 21 23 26 28 30 33 35 37 39 41 43 44 45 45 46 47 47 48 49 49 48 47 47
22 23 24 25 26 28 29 30 32 33 35 35 36 38 38 38 39 40 41 41 42 42 43 43 44 44 44 45 45 45 43 43 44 44 43 42 42 42 40 38 37 36 34 31 29 27 26 25 23 22 21 19 17 15 12 10 8 7 7 8 9 11 13 16 18 21 23 25 27 29 32 35 37 39 40 40 41 42 43 44 44 44 44 44 44
21 22 23 24 25 26 27 28 29 31 32 33 34 35 36 36 37 37 38 38 39 40 40 41 41 41 41 42 43 43 42 41 42 42 40 39 40 39 38 38 39 38 37 34 32 30 29 27 26 25 24 22 20 18 16 13 11 8 6 5 4 5 6 9 11 14 16 19 21 23 25 27 30 32 33 34 35 36 36 37 38 39 39 39 39
20 20 22 23 23 24 25 26 27 28 29 31 32 32 33 34 34 35 36 37 37 38 38 38 38 39 39 40 40 40 39 39 39 39 38 38 38 38 37 36 37 37 36 36 35 33 32 30 28 26 26 25 24 23 21 18 16 13 10 7 5 3 1 3 6 8 10 12 14 16 19 21 23 25 27 28 29 30 31 32 33 33 34 34 34
19 19 20 21 22 24 25 25 26 27 27 28 29 29 30 31 32 33 34 35 35 35 35 36 36 37 37 37 37 36 36 36 37 36 36 37 37 36 36 35 35 34 35 35 35 34 32 31 29 29 29 28 27 27 26 24 22 20 17 14 11 8 4 2 2 4 6 8 10 11 13 15 17 18 20 22 23 24 24 26 27 27 28 28 28
18 19 20 20 21 22 23 24 25 25 26 27 27 28 28 29 29 30 31 31 32 33 33 34 34 34 34 34 34 34 34 35 35 34 34 35 34 34 34 34 34 34 34 34 33 32 31 29 28 28 29 30 29 29 29 29 27 26 24 20 16 13 10 7 6 5 3 4 6 7 9 10 12 13 14 15 16 17 18 19 20 21 22 23 24
17 18 19 19 20 21 21 22 23 24 25 26 26 27 27 28 28 29 29 29 30 31 31 31 31 31 31 32 32 32 32 33 32 32 32 32 32 32 32 32 32 32 32 32 31 31 30 29 27 26 27 29 28 27 28 29 28 26 25 23 22 20 18 15 13 11 8 6 5 6 7 8 10 11 11 11 12 12 14 15 16 16 18 18 19
Wind_Direction
322 319 316 315 315 313 309 306 306 307 306 302 303 302 298 294 286 283 282 279 280 292 303 298 284 280 283 285 287 286 287 290 282 278 273 265 272 262 220 207 207 202 199 198 197 196 196 196 197 197 198 198 198 200 201 203 206 207 207 208 205 198 194 192 190 187 188 194 197 197 199 201 200 200 203 204 205 207 208 209 210 212 213 215 218
322 320 317 314 313 312 310 308 306 307 308 303 300 301 300 297 292 287 282 275 273 281 291 299 293 283 281 281 283 284 285 287 283 273 269 263 268 270 234 209 209 207 199 196 195 196 197 197 197 197 198 198 199 200 202 203 205 207 207 207 206 203 198 194 191 189 190 194 197 198 198 201 202 203 204 205 207 208 210 210 210 211 215 218 220
322 320 316 313 312 311 308 309 307 305 306 304 300 300 299 299 296 290 282 274 270 273 280 289 295 290 283 277 278 284 284 285 284 271 265 261 261 268 251 218 211 210 202 197 196 196 197 197 197 197 197 197 198 199 199 201 203 205 206 207 207 205 202 199 197 194 193 194 196 198 198 200 203 205 206 206 209 211 211 210 210 211 215 219 221
322 320 317 314 312 311 309 308 308 305 304 303 300 298 297 297 298 293 285 276 269 270 272 277 286 291 285 276 275 282 282 283 284 274 263 260 256 262 261 228 209 207 205 201 199 197 196 197 197 198 197 196 197 197 197 199 202 203 204 204 205 205 203 202 203 201 197 194 195 199 201 201 202 206 207 206 208 213 214 212 211 213 217 219 220
323 322 319 316 314 311 309 307 308 306 303 302 300 297 295 295 296 295 290 280 272 270 269 269 274 283 286 279 275 277 280 280 282 277 264 258 254 256 263 240 208 201 202 201 200 198 197 198 197 197 197 196 196 197 197 199 201 202 203 202 201 202 202 201 203 205 203 200 199 200 202 203 203 205 208 208 208 211 214 214 213 215 218 218 216
323 322 320 317 314 311 309 306 306 305 302 300 299 298 295 294 292 292 290 286 277 271 268 266 267 273 280 282 278 275 277 278 279 279 268 258 253 250 258 250 217 204 202 200 198 199 198 198 198 197 198 198 198 199 199 199 200 200 201 201 200 199 201 201 201 205 209 212 210 206 204 205 206 206 207 210 211 211 210 210 212 216 218 216 211
321 321 319 315 312 309 309 307 304 303 300 298 298 297 295 293 291 290 289 289 283 274 269 264 263 266 269 276 281 278 275 275 275 277 273 262 255 248 251 253 228 210 206 203 199 199 199 199 199 199 200 200 200 201 200 200 201 201 200 200 199 198 199 200 202 205 208 211 212 209 205 205 207 208 207 208 212 213 211 208 207 210 213 213 210
321 321 318 314 311 309 308 307 303 300 299 297 296 295 295 294 293 292 288 286 285 280 274 266 260 260 261 263 273 275 272 272 271 273 273 267 260 248 244 252 236 213 206 204 200 200 200 200 201 201 202 203 203 203 202 202 202 202 201 202 201 200 200 200 201 203 205 206 207 207 207 207 207 207 205 203 205 208 210 211 211 211 210 209 210
321 320 317 312 311 309 306 305 303 300 298 296 295 294 294 294 293 293 288 283 282 281 279 272 261 257 257 256 260 265 265 266 266 268 274 272 265 251 240 248 243 216 205 203 200 199 200 200 201 203 203 205 205 204 203 203 203 202 201 202 203 202 201 201 200 201 203 204 206 206 206 207 207 205 203 203 205 207 209 212 215 214 209 205 205
325 323 318 313 314 313 308 303 301 301 298 296 295 293 292 293 292 292 289 285 282 280 280 278 268 259 257 255 255 254 255 259 259 261 272 276 270 255 239 242 248 222 206 203 200 198 200 201 202 204 205 205 205 205 203 203 205 205 203 202 203 202 200 199 200 202 204 205 206 206 204 204 206 206 206 208 210 211 210 210 211 210 205 201 200
327 325 319 315 314 313 310 304 300 300 300 297 296 295 293 292 291 291 290 286 282 281 281 280 274 265 258 256 256 253 251 255 256 257 266 273 273 262 241 238 250 231 209 204 202 199 200 202 202 203 204 204 204 205 204 204 206 207 206 206 206 205 203 201 201 203 206 207 207 208 207 206 207 209 211 212 212 211 210 211 211 209 204 201 200
328 328 325 321 315 312 311 309 304 301 301 300 299 297 295 293 292 290 290 286 282 279 278 277 277 271 262 256 255 253 251 253 254 255 260 267 270 268 247 236 247 241 214 206 206 203 201 202 202 202 204 204 204 204 205 206 208 208 208 210 211 212 213 212 210 209 209 209 208 209 210 210 210 210 212 212 211 210 210 211 212 210 208 206 205
331 330 327 323 317 313 312 311 307 303 302 302 300 299 296 293 291 288 287 285 281 277 276 276 276 275 269 260 254 252 251 252 252 253 257 262 266 269 254 238 242 246 219 207 206 206 203 203 202 202 204 205 204 204 204 206 209 210 211 213 215 217 219 221 222 221 218 215 213 212 214 214 213 213 213 213 212 210 208 209 211 212 212 212 212
332 330 327 322 318 316 314 313 311 308 305 304 301 300 298 294 292 290 288 287 280 273 273 274 273 274 273 266 256 251 250 249 250 251 253 259 264 268 262 242 239 245 227 208 205 207 205 204 203 203 203 204 204 204 204 205 207 208 210 213 215 217 218 219 222 224 224 222 220 218 217 217 217 217 216 215 214 212 209 209 210 212 213 214 214
336 335 330 323 319 319 317 315 313 312 312 308 303 300 298 295 295 293 290 289 282 271 268 271 271 272 273 270 260 252 248 246 247 249 251 255 261 265 267 250 238 242 233 213 206 207 207 206 206 204 204 204 204 204 204 204 205 206 207 210 213 213 214 216 219 221 222 224 225 224 221 220 219 220 219 217 215 213 211 210 209 208 208 208 209
336 334 331 325 322 321 319 316 316 318 318 314 307 303 302 298 297 295 292 291 285 272 265 267 269 268 270 270 262 252 248 244 245 248 250 254 260 263 267 258 241 238 235 217 208 208 209 208 207 206 205 206 207 207 206 205 205 205 206 208 210 210 212 216 219 221 222 224 225 227 227 225 223 224 225 222 216 212 210 208 206 205 204 203 203
334 334 333 331 328 326 324 322 322 322 319 314 309 308 307 304 301 298 295 292 286 275 265 262 266 269 270 268 260 252 248 244 244 248 250 252 258 260 264 261 243 234 234 220 208 207 209 209 207 206 206 207 208 207 206 205 204 205 205 207 208 209 211 213 215 218 221 223 225 226 227 227 226 226 227 225 220 215 210 206 206 206 205 204 204
336 335 333 331 331 330 328 325 323 322 319 315 312 310 308 305 303 299 295 291 286 278 266 261 265 268 267 264 259 254 250 245 244 248 250 251 256 257 260 261 244 232 231 222 209 206 209 210 209 208 207 207 208 206 204 203 204 205 205 206 207 208 209 210 211 213 216 219 222 224 224 225 225 225 225 224 222 219 214 211 210 210 209 208 209
341 338 336 336 334 332 329 326 324 323 321 318 316 313 309 305 302 298 294 290 287 279 266 262 267 269 267 265 261 258 254 248 245 249 250 251 254 254 257 259 244 230 229 221 208 204 207 209 210 211 210 209 208 206 203 203 204 206 205 204 205 206 208 209 209 209 210 212 216 219 220 221 222 224 224 223 221 221 220 218 217 216 213 212 212
342 340 338 337 334 330 329 328 326 325 324 321 320 318 316 312 305 299 293 289 285 277 266 263 267 268 265 262 257 254 254 250 246 247 248 250 251 251 255 254 239 226 225 217 206 203 205 206 208 210 211 210 209 207 205 205 206 207 206 205 206 208 210 210 210 210 211 211 213 215 216 217 220 222 223 223 221 221 221 220 221 222 220 217 215
343 342 339 337 334 331 331 331 330 331 330 328 325 322 321 319 313 302 293 287 279 273 269 267 269 269 267 260 253 250 252 254 252 249 248 249 248 249 253 246 229 221 220 213 204 202 203 205 206 207 209 210 210 209 208 207 207 208 210 211 213 213 212 211 210 211 211 211 212 213 214 215 218 220 221 221 222 221 220 220 222 223 224 223 220
344 344 340 338 336 334 334 336 335 335 336 335 331 326 324 323 318 306 293 284 278 277 277 274 276 280 281 269 256 251 252 256 256 253 252 251 248 249 248 236 221 216 216 209 203 203 204 205 206 206 207 209 210 210 209 208 208 210 214 217 215 213 213 212 209 208 209 210 210 211 212 214 216 218 219 220 221 222 221 220 220 221 224 227 228
346 345 340 338 338 337 338 342 344 342 340 338 332 326 322 321 320 312 300 291 288 289 287 282 280 283 282 271 258 254 254 256 258 257 255 253 251 248 239 225 215 215 214 207 202 203 205 206 208 208 209 209 210 210 209 208 208 210 215 216 213 211 211 210 207 206 207 209 211 212 214 215 217 218 220 221 221 222 222 221 220 220 222 226 230
347 345 343 341 340 339 344 350 350 344 339 335 332 328 322 317 318 315 306 296 288 285 285 283 281 279 275 266 259 257 258 260 259 257 255 252 248 239 226 216 213 214 213 208 204 203 205 207 209 210 210 210 210 211 210 209 209 211 213 213 211 210 210 209 208 208 208 209 213 215 216 217 218 219 221 223 223 223 223 222 221 221 223 226 229
348 347 346 344 343 344 350 354 349 342 340 337 335 334 330 322 315 313 308 297 284 277 279 281 279 277 275 272 266 262 262 262 259 255 251 245 237 226 217 213 213 213 211 208 205 205 207 210 211 211 211 210 210 210 209 209 210 211 211 210 209 210 213 213 211 210 210 213 216 217 218 219 220 220 221 222 223 223 222 221 220 220 222 224 225
349 349 347 346 346 349 354 353 346 344 346 345 340 339 339 334 323 314 309 302 291 282 279 279 278 276 276 276 274 268 265 263 259 252 243 233 226 220 215 213 213 212 210 208 207 207 209 210 211 211 210 209 208 207 208 210 212 211 210 209 209 211 213 213 210 209 212 215 216 216 217 219 220 220 220 221 222 222 221 219 218 218 219 220 221
350 350 350 349 350 354 356 354 350 350 352 352 347 343 343 342 337 332 328 323 315 303 291 283 280 279 278 278 277 273 269 263 256 247 234 226 221 215 211 211 211 209 207 206 205 205 206 207 210 210 209 208 208 208 209 210 210 208 206 206 209 212 213 213 213 213 215 216 216 214 214 216 218 218 219 220 221 221 220 219 218 218 218 219 220
352 352 352 351 353 356 356 357 358 358 357 355 352 350 351 351 349 348 345 338 330 318 301 286 279 277 277 280 280 277 273 265 255 246 234 223 216 209 206 208 208 204 203 203 203 204 205 206 206 205 205 205 205 206 208 208 208 206 206 208 210 212 212 213 214 215 216 216 215 212 210 211 214 216 218 218 218 219 219 220 220 220 220 219 219
355 355 354 354 357 357 357 1 5 3 360 358 356 356 3 6 0 356 354 353 345 329 302 282 278 277 276 278 281 281 280 274 262 253 242 226 217 212 208 206 204 202 201 201 201 200 200 200 200 200 201 202 203 203 205 207 207 207 208 210 210 211 211 212 213 214 214 213 211 209 209 210 213 215 216 217 216 217 218 219 220 220 220 220 221
358 356 356 359 2 1 1 5 9 8 5 5 2 0 9 23 22 16 14 17 10 352 311 272 271 273 271 270 271 274 283 284 273 257 241 225 220 219 211 204 201 200 200 200 199 197 195 196 198 200 201 201 200 200 202 204 205 205 207 209 210 209 211 213 214 213 213 212 211 209 209 210 211 213 215 216 216 216 219 220 220 220 220 221 223
0 359 359 3 8 9 8 10 14 13 12 13 12 9 8 21 44 44 38 36 32 22 1 268 258 262 264 262 257 258 272 280 274 256 233 212 213 217 208 201 198 196 196 196 196 195 194 194 197 199 201 201 199 200 201 202 204 205 205 207 209 210 211 213 214 213 212 212 213 211 209 210 211 213 216 217 216 217 219 220 221 221 222 223 224
4 2 4 7 12 15 15 17 19 19 18 20 22 20 16 16 26 44 52 50 46 41 37 31 318 279 265 256 248 246 256 269 271 255 229 202 192 201 202 199 196 194 193 193 194 195 197 198 198 199 202 203 202 203 203 203 205 206 206 206 208 210 212 214 215 213 212 212 213 212 211 211 212 214 216 216 216 217 219 219 220 221 222 223 224
11 8 9 11 15 18 20 22 25 25 26 27 28 29 27 25 23 26 39 54 59 57 57 61 60 51 337 255 244 243 249 257 255 240 221 198 183 182 193 198 198 196 193 192 192 195 198 200 200 200 202 204 204 204 205 205 206 207 207 208 209 211 212 213 213 212 212 213 214 215 216 216 215 214 215 216 216 218 219 220 221 220 219 221 222
19 18 17 17 20 22 24 26 28 29 31 34 35 35 35 34 31 30 32 37 44 51 55 60 66 70 71 68 199 225 244 249 230 207 193 186 177 170 179 194 198 198 196 194 193 194 194 196 198 201 202 204 205 206 206 206 206 206 208 211 212 213 213 212 213 214 213 213 215 216 218 218 218 217 217 217 217 217 218 219 220 219 218 220 221
23 24 24 24 24 26 27 29 31 32 33 35 39 40 38 37 38 39 38 36 34 38 45 52 59 66 73 83 91 91 87 101 182 187 176 167 162 162 176 192 196 197 199 201 202 202 199 197 198 201 203 205 206 207 208 208 207 209 211 213 214 214 213 213 216 218 216 214 215 216 216 217 218 219 219 218 217 217 217 219 219 219 220 221 221
23 25 28 29 28 28 29 32 36 37 37 37 39 41 42 41 40 41 43 42 40 41 45 49 56 66 76 82 84 81 79 84 115 153 152 153 160 167 176 184 189 192 195 199 203 207 209 209 207 206 207 208 208 210 211 211 211 212 213 215 216 216 215 216 218 219 218 217 217 216 215 216 217 216 215 216 217 219 220 220 221 221 221 222 221
24 26 29 32 31 30 31 34 38 40 40 40 40 40 42 44 43 43 44 44 44 45 47 48 52 58 63 66 70 73 76 85 107 120 121 133 151 157 157 161 171 179 186 191 195 200 205 209 209 209 210 211 212 212 213 214 215 216 216 216 217 218 219 221 221 221 221 221 220 218 216 216 217 216 214 213 216 218 220 220 221 221 222 222 221
29 29 30 32 33 32 32 34 38 41 42 43 43 42 42 43 44 46 46 46 45 47 49 49 48 48 49 52 59 67 76 89 100 101 103 111 120 123 126 135 148 157 166 177 187 191 195 200 202 204 208 211 214 216 216 216 217 217 218 219 220 221 223 224 223 222 223 224 224 223 221 219 219 218 216 216 217 218 218 219 219 220 221 220 219
29 31 32 32 33 34 34 35 36 40 42 44 45 46 45 45 45 46 47 47 47 48 50 51 48 44 44 49 57 65 73 77 76 77 82 88 94 98 105 114 124 129 136 150 165 173 182 190 194 197 200 204 208 213 218 220 222 222 222 222 222 222 222 222 222 223 224 224 224 225 225 224 222 221 220 219 220 220 220 220 220 220 220 220 219
29 31 33 35 35 36 37 38 38 39 41 43 45 47 47 48 48 48 49 49 49 49 51 53 52 47 45 48 55 63 69 70 70 72 76 77 80 85 91 96 101 107 113 124 137 147 156 168 182 191 195 198 201 205 210 215 220 223 225 226 226 225 224 224 224 225 226 226 226 225 225 225 225 222 221 222 222 223 223 222 222 222 222 222 222
31 33 35 37 37 38 39 41 42 42 41 42 45 46 47 48 50 50 51 51 52 52 52 53 55 55 54 53 56 63 69 69 68 69 71 71 73 77 80 82 85 90 94 100 109 119 132 144 157 171 182 189 195 198 201 204 210 216 220 223 225 225 225 225 225 226 227 227 227 225 224 224 223 221 221 223 223 223 222 223 224 224 223 223 223
31 33 35 37 37 38 40 42 45 45 44 43 45 46 47 48 49 50 51 51 52 53 54 54 55 56 57 57 57 61 65 67 66 66 67 68 69 71 73 77 79 80 83 87 90 93 105 121 130 141 157 170 179 188 193 196 200 205 210 216 220 222 224 225 226 227 227 227 227 227 226 225 223 223 223 224 223 223 223 224 225 226 226 225 224
30 32 35 36 37 39 40 43 45 45 45 45 46 46 46 47 48 49 49 50 50 51 52 53 53 54 55 57 57 58 60 61 62 62 63 64 65 67 69 72 75 77 79 82 82 83 88 98 104 110 119 134 150 165 176 185 192 197 201 206 211 216 220 223 225 226 227 228 228 229 228 227 227 226 225 225 225 225 225 226 227 228 229 229 228
30 32 33 35 37 39 40 41 43 45 46 46 46 46 46 46 47 49 49 49 49 49 50 51 51 51 52 54 55 55 57 58 58 59 60 61 62 63 65 67 70 73 76 78 79 81 83 86 90 93 96 101 111 128 148 164 179 188 194 199 204 209 213 216 219 222 225 227 227 228 228 228 228 228 227 227 226 226 226 226 227 228 229 229 229
30 33 34 35 37 39 39 40 41 42 44 45 46 46 46 45 45 47 49 49 49 49 49 49 49 50 51 52 53 53 54 56 58 58 58 59 60 60 61 63 66 68 70 71 74 77 80 82 84 87 88 88 90 98 112 130 150 169 183 193 201 206 210 213 217 220 223 225 227 229 229 229 229 229 229 229 229 228 228 228 229 229 229 229 229
29 32 33 34 36 38 39 40 40 40 41 43 44 45 46 45 45 45 46 47 48 48 49 49 49 49 50 51 52 52 52 54 56 56 56 57 59 59 60 62 63 64 65 66 68 72 75 77 79 81 82 83 83 85 90 100 113 135 160 177 194 205 209 214 218 220 222 225 226 228 230 231 231 231 231 231 231 231 231 231 232 232 231 232 232
28 30 31 33 35 37 38 39 40 40 40 41 41 42 44 44 45 45 46 46 47 47 48 48 49 49 50 51 51 51 51 51 53 53 53 55 57 58 59 61 62 63 64 64 66 68 70 72 75 78 79 80 80 80 82 85 90 99 115 137 168 200 214 219 222 223 224 225 225 226 228 230 231 231 231 232 232 232 233 233 234 234 235 235 235
25 27 29 29 31 33 35 36 38 39 40 39 39 39 40 41 42 43 44 45 45 45 45 46 47 48 49 50 50 50 50 51 52 52 52 54 55 55 56 58 60 61 62 63 63 64 65 67 70 73 76 77 78 77 76 77 79 83 87 91 94 97 179 230 230 226 226 225 224 225 227 229 230 231 231 231 231 231 231 232 233 233 233 234 234
21 23 25 26 27 30 31 32 33 35 37 37 38 38 38 38 39 40 41 41 42 43 43 44 45 46 47 48 48 48 49 50 50 51 51 52 53 54 55 55 57 58 60 60 60 61 62 64 67 70 71 73 75 76 75 73 73 73 73 72 72 75 80 108 178 202 216 219 219 221 223 224 227 228 227 227 228 228 229 229 230 230 230 230 229
14 17 20 22 24 25 27 28 30 31 32 33 34 35 35 35 36 37 38 38 39 40 40 41 42 43 44 45 46 46 47 47 47 48 49 50 51 52 54 54 55 56 58 59 59 59 59 61 64 67 69 69 70 72 73 71 69 68 69 69 71 75 81 90 100 113 139 179 194 201 207 211 215 218 217 217 219 220 221 222 223 224 224 224 223
9 11 14 17 20 21 22 24 26 27 27 28 29 30 31 31 32 32 33 34 36 37 37 38 39 40 40 42 43 44 45 46 45 45 46 46 47 48 50 51 52 54 56 57 58 58 57 57 58 62 66 67 65 65 68 70 69 68 69 70 71 73 76 79 84 87 91 106 134 152 165 176 183 185 186 190 194 198 201 203 205 207 209 210 211